Youngstown, OH

1:11 PM EDT on July 26, 2017 (GMT -0400)
Youngstown-Warren Regional

Weather History for KYNG - October, 2012

Change the Weather History Date:

Sunday, October 21, 2012

  Actual Average Record
Temperature  
Mean Temperature 49 °F 50 °F  
Max Temperature 60 °F 59 °F 80 °F (1979)
Min Temperature 37 °F 40 °F 21 °F (1952)
Degree Days  
Heating Degree Days 16 16  
Month to date heating degree days 277 268  
Since 1 July heating degree days 467 451  
Cooling Degree Days 0 0  
Month to date cooling degree days 1 3  
Year to date cooling degree days 759 541  
Moisture  
Dew Point 38 °F    
Average Humidity 68    
Maximum Humidity 92    
Minimum Humidity 44    
Precipitation  
Precipitation 0.00 in 0.08 in 0.81 in (2016)
Month to date precipitation 1.65 1.90  
Year to date precipitation 34.88 31.87  
Snow  
Snow 0.00 in 0.00 in - ()
Month to date snowfall 0.0 0.3  
Since 1 July snowfall T 0.3  
Since 1 September snowfall 0.0 0.3  
Snow Depth 0.00 in    
Sea Level Pressure  
Sea Level Pressure 30.08 in    
Wind  
Wind Speed 5 mph (WSW)    
Max Wind Speed 14 mph    
Max Gust Speed 18 mph    
Visibility 10 miles    
Events      
T = Trace of Precipitation, MM = Missing Value Source: NWS Daily Summary

Daily Weather History Graph

Daily Weather History Graph

Search for Another Location

Airport or City:

Trip Planner

Search our weather history database for the weather conditions in past years. The results will help you decide how hot, cold, wet, or windy it might be!

Date:

Astronomy

Oct. 21, 2012 Rise Set
Actual Time 7:41 AM EDT 6:32 PM EDT
Civil Twilight 7:13 AM EDT 7:00 PM EDT
Nautical Twilight 6:41 AM EDT 7:32 PM EDT
Astronomical Twilight 6:09 AM EDT 8:04 PM EDT
Moon 2:02 PM EDT (10/21) No Moon Set
Length of Visible Light 11h 46m
Length of Day
10h 50m
Waxing Crescent, 45% of the Moon is Illuminated
Oct 21
Waxing Crescent
Oct 21
First Quarter
Oct 29
Full
Nov 6
Last Quarter
Nov 13
New

Hourly Weather History & Observations

Time (EDT) Temp. Windchill Dew Point Humidity Pressure Visibility Wind Dir Wind Speed Gust Speed Precip Events Conditions
12:51 AM 46.9 °F - 39.9 °F 77% 29.95 in 10.0 mi WSW 10.4 mph - N/A   Mostly Cloudy
1:51 AM 44.1 °F 39.0 °F 39.0 °F 82% 29.96 in 10.0 mi WSW 9.2 mph - N/A   Partly Cloudy
2:51 AM 45.0 °F 40.6 °F 39.9 °F 82% 29.98 in 10.0 mi WSW 8.1 mph - N/A   Mostly Cloudy
3:51 AM 45.0 °F 40.1 °F 39.9 °F 82% 30.00 in 10.0 mi WSW 9.2 mph - N/A   Overcast
4:51 AM 45.0 °F 40.6 °F 39.9 °F 82% 30.02 in 10.0 mi West 8.1 mph - N/A   Mostly Cloudy
5:51 AM 44.1 °F 40.1 °F 39.0 °F 82% 30.04 in 10.0 mi West 6.9 mph - N/A   Mostly Cloudy
6:51 AM 42.1 °F 37.1 °F 39.0 °F 89% 30.07 in 10.0 mi WSW 8.1 mph - N/A   Mostly Cloudy
7:51 AM 39.9 °F 36.7 °F 37.0 °F 89% 30.09 in 8.0 mi SW 4.6 mph - N/A   Scattered Clouds
8:51 AM 43.0 °F 41.3 °F 39.9 °F 89% 30.10 in 10.0 mi WSW 3.5 mph - N/A   Scattered Clouds
9:51 AM 48.0 °F - 41.0 °F 77% 30.11 in 10.0 mi WSW 6.9 mph - N/A   Partly Cloudy
10:51 AM 52.0 °F - 42.1 °F 69% 30.13 in 10.0 mi WSW 6.9 mph - N/A   Scattered Clouds
11:51 AM 55.0 °F - 42.1 °F 62% 30.12 in 10.0 mi WNW 5.8 mph - N/A   Mostly Cloudy
12:34 PM 53.6 °F - 39.2 °F 58% 30.11 in 10.0 mi West 6.9 mph - N/A   Mostly Cloudy
12:51 PM 54.0 °F - 39.0 °F 57% 30.12 in 10.0 mi West 9.2 mph - N/A   Mostly Cloudy
1:51 PM 55.0 °F - 39.9 °F 57% 30.11 in 10.0 mi WSW 11.5 mph - N/A   Mostly Cloudy
2:51 PM 55.9 °F - 37.9 °F 51% 30.10 in 10.0 mi WNW 6.9 mph - N/A   Mostly Cloudy
3:51 PM 57.9 °F - 37.9 °F 47% 30.10 in 10.0 mi WNW 4.6 mph - N/A   Mostly Cloudy
4:51 PM 59.0 °F - 37.0 °F 44% 30.10 in 10.0 mi West 4.6 mph - N/A   Scattered Clouds
5:51 PM 57.0 °F - 37.0 °F 47% 30.10 in 10.0 mi WSW 4.6 mph - N/A   Partly Cloudy
6:51 PM 50.0 °F - 37.0 °F 61% 30.11 in 10.0 mi SSW 3.5 mph - N/A   Partly Cloudy
7:51 PM 46.9 °F - 36.0 °F 66% 30.12 in 10.0 mi South 3.5 mph - N/A   Partly Cloudy
8:51 PM 48.0 °F - 37.0 °F 66% 30.14 in 10.0 mi Calm Calm - N/A   Clear
9:51 PM 45.0 °F 42.6 °F 37.0 °F 74% 30.14 in 10.0 mi SSW 4.6 mph - N/A   Clear
10:51 PM 41.0 °F - 35.1 °F 79% 30.14 in 10.0 mi Calm Calm - N/A   Partly Cloudy
11:51 PM 39.0 °F - 35.1 °F 86% 30.15 in 10.0 mi Calm Calm - N/A   Partly Cloudy